KAITUO 1B
1 40912U 15049P   19221.39751851  .00001065  00000-0  53034-4 0  9990
2 40912  97.4501 228.0797 0014980 358.4113 107.1749 15.19673964215161
TIANWANG 1C (TW-1C)
1 40926U 15051B   19221.35937535  .00012401  00000-0  17596-3 0  9997
2 40926  97.1320 267.4817 0008449 167.5913 321.1211 15.56533561218199
TIANWANG 1B (TW-1B)
1 40927U 15051C   19221.49583380  .00011067  00000-0  16692-3 0  9991
2 40927  97.1357 266.8859 0007918 177.2326 290.3534 15.54900665218067
TIANWANG 1A (TW-1A)
1 40928U 15051D   19221.44908661  .00003017  00000-0  75104-4 0  9990
2 40928  97.1435 251.6061 0009537 242.1025 225.3744 15.40993023217143
LAPAN A2
1 40931U 15052B   19215.07574832 +.00000640 +00000-0 +41238-7 0  9999
2 40931 005.9990 092.8905 0012958 075.9377 284.2056 14.76610632207986
LQSAT
1 40958U 15057A   19220.78002660 -.00000017 +00000-0 +49915-5 0  9999
2 40958 097.8956 288.5888 0019583 078.6825 281.6582 14.73085542206336
CHUBUSAT 2
1 41338U 16012B   19221.12520345  .00000251  00000-0  12721-4 0  9991
2 41338  31.0023 177.9006 0013873 252.4594 107.4525 15.00164614190645
CHUBUSAT 3
1 41339U 16012C   19221.28827626  .00000215  00000-0  98677-5 0  9996
2 41339  31.0097 174.8935 0013518 262.6279  97.2821 15.00339008190661
OUFTI-1
1 41458U 16025C   19221.21976131  .00001245  00000-0  67124-4 0  9997
2 41458  98.1013 310.6859 0166311 183.3545 176.6580 15.05890483180325
E-STAR-2
1 41459U 16025D   19221.44788760  .00002173  00000-0  11422-3 0  9992
2 41459  98.1026 310.5575 0167945 184.1038 175.8814 15.05539598180333
AAUSAT 4
1 41460U 16025E   19221.29242833  .00001900  00000-0  98347-4 0  9992
2 41460  98.0964 311.7639 0158086 176.6544 183.5770 15.07443318180448
NUSAT 1
1 41557U 16033B   19221.47694798  .00000940  00000-0  37832-4 0  9994
2 41557  97.4176 308.6774 0015425 112.6940 247.5931 15.27291727177990
BEESAT 4
1 41619U 16040W   19220.75711381  .00000952  00000-0  43148-4 0  9999
2 41619  97.3641 282.0223 0010804 195.6027 164.4878 15.23209075161634
PRATHAM
1 41783U 16059A   19220.75774781 +.00000025 +00000-0 +14117-4 0  9999
2 41783 098.0638 279.2026 0032692 221.6517 138.2195 14.63002845153015
ALSAT 1N
1 41789U 16059G   19221.45455595  .00000063  00000-0  20902-4 0  9993
2 41789  98.0673 281.9920 0027779 208.5443 151.4243 14.64254165153224
NAYIF 1
1 42017U 17008BX  19221.12120112  .00001035  00000-0  43561-4 0  9997
2 42017  97.3999 287.6793 0006050   4.7508 355.3786 15.25620293137765
MAX VALIER SAT
1 42778U 17036P   19220.94000457 +.00000653 +00000-0 +31490-4 0  9993
2 42778 097.3506 277.4684 0013650 050.4236 309.8204 15.22074790118039
